DateTime, BSG0, minRH, maxRH, minT, maxT, TD, U_S11, kappaFrh, kappa, intercept, sdSlope, sdIntercept, sigma_kappa, rSquared
2017-01-01 00:00:00, 600.803,  46.811,  84.444,  28.200,  28.600,  21.703,   0.438,   1.429,   0.091,   1.015,   0.006,   0.015,   0.029,   0.953
2017-01-01 01:00:00, 577.064,  42.381,  83.624,  28.200,  28.600,  21.303,   0.468,   1.468,   0.100,   0.986,   0.004,   0.010,   0.022,   0.975
2017-01-01 02:00:00, 567.142,  42.470,  84.599,  28.100,  28.600,  21.335,   0.448,   1.448,   0.095,   0.993,   0.006,   0.013,   0.029,   0.958
2017-01-01 03:00:00, 580.727,  42.475,  83.852,  28.200,  28.600,  21.307,   0.496,   1.460,   0.098,   0.986,   0.004,   0.009,   0.024,   0.973
2017-01-01 04:00:00, 578.948,  42.463,  84.034,  28.200,  28.600,  21.360,   0.500,   1.456,   0.097,   0.988,   0.005,   0.012,   0.025,   0.969
2017-01-01 05:00:00, 559.211,  42.512,  83.920,  28.200,  28.600,  21.358,   0.360,   1.444,   0.094,   0.990,   0.005,   0.011,   0.025,   0.966
2017-01-01 06:00:00, 534.097,  42.677,  84.015,  28.100,  28.600,  21.350,   0.152,   1.453,   0.096,   0.986,   0.006,   0.012,   0.025,   0.966
2017-01-01 07:00:00, 552.608,  42.540,  83.587,  28.100,  28.600,  21.364,   0.300,   1.448,   0.095,   0.991,   0.005,   0.011,   0.023,   0.973
2017-01-01 08:00:00, 564.380,  42.207,  84.011,  28.200,  28.600,  21.366,   0.356,   1.480,   0.103,   0.990,   0.006,   0.014,   0.024,   0.974
2017-01-01 09:00:00, 586.672,  42.630,  83.991,  28.200,  28.600,  21.389,   0.500,   1.470,   0.100,   1.009,   0.005,   0.011,   0.025,   0.971
2017-01-01 10:00:00, 606.788,  42.794,  84.121,  28.100,  28.600,  21.338,   0.576,   1.467,   0.100,   1.013,   0.006,   0.013,   0.027,   0.966
2017-01-01 11:00:00, 647.209,  42.734,  84.300,  28.100,  28.500,  21.347,   0.732,   1.460,   0.098,   1.012,   0.005,   0.011,   0.026,   0.969
2017-01-01 12:00:00, 607.012,  42.777,  83.874,  28.100,  28.600,  21.324,   0.600,   1.459,   0.098,   1.012,   0.004,   0.009,   0.021,   0.978
2017-01-01 13:00:00, 619.753,  42.543,  84.648,  28.100,  28.400,  21.309,   0.820,   1.412,   0.087,   1.024,   0.006,   0.012,   0.025,   0.963
2017-01-01 14:00:00, 609.745,  42.796,  84.004,  28.000,  28.400,  21.228,   0.900,   1.444,   0.094,   1.019,   0.004,   0.010,   0.021,   0.977
2017-01-01 15:00:00, 593.933,  42.770,  84.262,  27.800,  28.300,  21.135,   0.912,   1.450,   0.096,   1.017,   0.004,   0.011,   0.021,   0.979
2017-01-01 16:00:00, 596.969,  43.003,  84.206,  27.800,  28.300,  21.088,   0.908,   1.458,   0.098,   1.014,   0.005,   0.012,   0.024,   0.972
2017-01-01 17:00:00, 593.745,  42.696,  83.738,  27.900,  28.500,  21.132,   0.900,   1.477,   0.102,   1.007,   0.004,   0.009,   0.023,   0.976
2017-01-01 18:00:00, 596.524,  42.535,  83.980,  27.900,  28.400,  21.150,   0.904,   1.464,   0.099,   1.009,   0.005,   0.011,   0.022,   0.976
2017-01-01 19:00:00, 588.224,  42.630,  84.096,  28.000,  28.400,  21.142,   0.852,   1.471,   0.101,   1.005,   0.005,   0.011,   0.022,   0.976
2017-01-01 20:00:00, 581.157,  42.780,  84.568,  27.900,  28.400,  21.163,   0.844,   1.447,   0.095,   1.016,   0.007,   0.015,   0.029,   0.957
2017-01-01 21:00:00, 583.041,  42.559,  84.130,  27.900,  28.400,  21.239,   0.812,   1.441,   0.094,   1.012,   0.005,   0.011,   0.024,   0.970
2017-01-01 22:00:00, 598.135,  42.638,  83.186,  28.000,  28.400,  21.181,   0.816,   1.461,   0.098,   1.006,   0.004,   0.009,   0.021,   0.978
2017-01-01 23:00:00, 568.572,  42.360,  83.737,  28.000,  28.400,  21.223,   0.796,   1.453,   0.096,   1.009,   0.004,   0.010,   0.022,   0.976
2017-01-02 00:00:00, 577.922,  42.380,  84.846,  28.000,  28.400,  21.242,   0.748,   1.435,   0.092,   1.016,   0.006,   0.014,   0.030,   0.957
2017-01-02 01:00:00, 435.494,  42.719,  84.459,  27.900,  28.500,  21.209,   0.532,   1.456,   0.097,   1.013,   0.006,   0.013,   0.028,   0.962
2017-01-02 02:00:00, 234.020,  42.540,  84.376,  27.900,  28.400,  21.211,   0.020,   1.455,   0.097,   1.019,   0.005,   0.013,   0.028,   0.961
2017-01-02 03:00:00, 135.819,  41.956,  84.263,  28.000,  28.400,  21.236,   0.000,   1.448,   0.095,   1.021,   0.005,   0.011,   0.025,   0.971
2017-01-02 04:00:00, 95.393, 42.448, 84.706, 27.900, 28.400, 21.185,  0.000,  1.435,  0.092,  1.010,  0.007,  0.015,  0.034,  0.941
2017-01-02 05:00:00, 59.920, 54.342, 84.352, 28.200, 28.400, 22.266,  0.000,  1.492,  0.105,  1.043,  0.007,  0.019,  0.029,  0.956
2017-01-02 06:00:00, 29.372, 42.278, 84.296, 27.900, 28.500, 21.191,  0.000,  1.646,  0.141,  1.004,  0.008,  0.016,  0.046,  0.952
2017-01-02 07:00:00, 12.432, 42.556, 84.858, 27.900, 28.400, 21.234,  0.000,  1.713,  0.158,  1.064,  0.016,  0.037,  0.104,  0.842
2017-01-02 08:00:00, 11.584, 42.368, 83.916, 28.000, 28.500, 21.207,  0.000,  1.862,  0.195,  0.978,  0.013,  0.026,  0.069,  0.942
2017-01-02 09:00:00, 16.781, 42.575, 84.262, 27.900, 28.400, 21.178,  0.000,  1.540,  0.116,  0.924,  0.009,  0.021,  0.050,  0.919
2017-01-02 10:00:00, 15.692, 42.002, 84.121, 28.000, 28.300, 21.139,  0.000,  1.506,  0.108,  0.936,  0.005,  0.011,  0.027,  0.973
2017-01-02 11:00:00, 189.536,  42.523,  84.171,  27.900,  28.400,  21.109,   0.000,   1.472,   0.101,   0.978,   0.007,   0.016,   0.027,   0.966
2017-01-02 12:00:00, 199.231,  42.841,  84.708,  27.700,  28.100,  21.061,   0.176,   1.452,   0.096,   1.004,   0.005,   0.011,   0.024,   0.972
2017-01-02 13:00:00, 234.740,  42.708,  85.180,  27.600,  28.000,  21.002,   0.352,   1.445,   0.095,   1.017,   0.005,   0.014,   0.033,   0.952
2017-01-02 14:00:00, 284.334,  42.507,  84.574,  27.800,  28.000,  20.985,   0.504,   1.441,   0.094,   1.009,   0.004,   0.008,   0.023,   0.975
2017-01-02 15:00:00, 270.704,  42.444,  83.836,  27.800,  28.300,  21.029,   0.484,   1.467,   0.100,   0.997,   0.004,   0.009,   0.019,   0.981
2017-01-02 16:00:00, 263.250,  42.820,  84.283,  27.700,  28.200,  21.097,   0.348,   1.431,   0.092,   1.001,   0.004,   0.010,   0.024,   0.971
2017-01-02 17:00:00, 167.953,  42.547,  84.619,  27.900,  28.300,  21.142,   0.008,   1.450,   0.096,   1.008,   0.007,   0.016,   0.033,   0.947
2017-01-02 18:00:00, 154.872,  42.348,  84.988,  27.900,  28.300,  21.211,   0.000,   1.422,   0.090,   1.010,   0.006,   0.014,   0.026,   0.966
2017-01-02 19:00:00, 147.627,  42.236,  84.060,  27.900,  28.500,  21.178,   0.000,   1.451,   0.096,   0.996,   0.006,   0.013,   0.028,   0.960
2017-01-02 20:00:00, 137.366,  42.197,  84.009,  27.900,  28.300,  21.219,   0.000,   1.435,   0.092,   0.997,   0.004,   0.010,   0.026,   0.965
2017-01-02 21:00:00, 167.905,  42.444,  84.540,  27.900,  28.400,  21.171,   0.000,   1.444,   0.094,   0.992,   0.006,   0.014,   0.030,   0.954
2017-01-02 22:00:00, 178.579,  42.207,  84.594,  27.900,  28.300,  21.209,   0.000,   1.433,   0.092,   0.993,   0.006,   0.015,   0.029,   0.959
2017-01-02 23:00:00, 248.747,  42.489,  84.167,  28.000,  28.500,  21.248,   0.000,   1.447,   0.095,   0.984,   0.004,   0.010,   0.024,   0.969
2017-01-03 00:00:00, 282.292,  42.640,  84.083,  28.000,  28.600,  21.281,   0.000,   1.444,   0.094,   0.963,   0.005,   0.012,   0.026,   0.964
2017-01-03 01:00:00, 327.629,  42.440,  84.506,  28.000,  28.500,  21.272,   0.100,   1.431,   0.092,   0.961,   0.005,   0.012,   0.025,   0.965
2017-01-03 02:00:00, 305.563,  54.726,  84.692,  28.100,  28.500,  22.315,   0.146,   1.413,   0.088,   1.038,   0.006,   0.014,   0.027,   0.948
2017-01-03 03:00:00, 298.388,  42.475,  83.833,  28.000,  28.500,  21.289,   0.128,   1.458,   0.097,   1.002,   0.004,   0.010,   0.023,   0.975
2017-01-03 05:00:00, 275.234,  42.863,  84.195,  28.000,  28.500,  21.230,   0.112,   1.478,   0.102,   1.002,   0.006,   0.012,   0.024,   0.973
2017-01-03 06:00:00, 265.155,  42.183,  84.335,  28.100,  28.500,  21.300,   0.100,   1.449,   0.096,   0.975,   0.006,   0.013,   0.024,   0.970
2017-01-03 07:00:00, 240.791,  42.498,  84.383,  27.900,  28.500,  21.258,   0.024,   1.439,   0.093,   0.981,   0.006,   0.014,   0.026,   0.964
2017-01-03 08:00:00, 235.112,  42.024,  84.396,  28.000,  28.600,  21.297,   0.080,   1.461,   0.098,   0.977,   0.005,   0.012,   0.026,   0.968
2017-01-03 09:00:00, 226.649,  42.167,  84.805,  28.000,  28.500,  21.298,   0.100,   1.427,   0.091,   1.002,   0.006,   0.013,   0.030,   0.952
2017-01-03 10:00:00, 228.823,  42.142,  83.654,  28.100,  28.600,  21.279,   0.276,   1.465,   0.099,   0.991,   0.004,   0.011,   0.023,   0.974
2017-01-03 11:00:00, 251.528,  42.339,  83.734,  28.000,  28.500,  21.208,   0.500,   1.476,   0.102,   0.996,   0.005,   0.011,   0.021,   0.979
2017-01-03 12:00:00, 254.114,  42.556,  84.250,  27.900,  28.300,  21.129,   0.600,   1.476,   0.102,   1.007,   0.005,   0.012,   0.025,   0.973
2017-01-03 14:00:00, 185.056,  43.152,  84.478,  27.700,  28.200,  21.012,   0.700,   1.611,   0.133,   1.061,   0.007,   0.016,   0.032,   0.974
2017-01-03 15:00:00, 320.636,  54.527,  84.712,  27.700,  28.000,  22.477,   0.800,   1.421,   0.089,   1.070,   0.005,   0.014,   0.020,   0.975
2017-01-03 16:00:00, 420.689,  43.207,  84.033,  27.700,  28.300,  21.024,   0.800,   1.477,   0.102,   1.008,   0.005,   0.012,   0.025,   0.972
2017-01-03 17:00:00, 478.591,  55.205,  84.472,  27.700,  28.200,  22.077,   0.900,   1.441,   0.094,   1.077,   0.006,   0.016,   0.029,   0.945
2017-01-03 18:00:00, 553.746,  41.955,  81.378,  27.800,  28.200,  19.941,   0.904,   1.469,   0.100,   0.974,   0.005,   0.008,   0.015,   0.985
2017-01-03 19:00:00, 581.177,  42.095,  81.057,  27.800,  28.300,  19.891,   1.032,   1.459,   0.098,   0.974,   0.007,   0.010,   0.020,   0.968
2017-01-03 20:00:00, 615.918,  41.888,  79.867,  27.800,  28.300,  19.922,   1.116,   1.449,   0.096,   0.972,   0.004,   0.006,   0.012,   0.989
2017-01-03 21:00:00, 615.866,  42.034,  80.206,  27.800,  28.200,  19.911,   1.224,   1.451,   0.096,   0.968,   0.005,   0.008,   0.018,   0.973
2017-01-03 22:00:00, 550.580,  41.562,  80.583,  27.900,  28.400,  19.918,   1.104,   1.472,   0.101,   0.966,   0.005,   0.008,   0.016,   0.981
2017-01-03 23:00:00, 563.836,  46.109,  80.446,  28.000,  28.300,  20.503,   1.131,   1.465,   0.099,   0.985,   0.004,   0.008,   0.013,   0.985
2017-01-04 00:00:00, 751.100,  42.121,  81.294,  27.800,  28.300,  19.977,   1.364,   1.416,   0.088,   0.975,   0.004,   0.006,   0.015,   0.980
2017-01-04 01:00:00, 774.646,  40.762,  80.999,  28.000,  28.500,  20.025,   1.344,   1.433,   0.092,   0.963,   0.005,   0.008,   0.015,   0.981
2017-01-04 02:00:00, 731.145,  41.037,  80.427,  28.100,  28.500,  20.103,   1.368,   1.439,   0.093,   0.965,   0.004,   0.006,   0.011,   0.989
2017-01-04 03:00:00, 639.517,  41.599,  80.674,  28.000,  28.500,  20.055,   1.308,   1.458,   0.098,   0.975,   0.005,   0.009,   0.017,   0.977
2017-01-04 04:00:00, 606.588,  41.442,  81.209,  28.100,  28.400,  20.151,   1.288,   1.445,   0.095,   0.984,   0.004,   0.007,   0.016,   0.980
2017-01-04 05:00:00, 569.583,  41.334,  80.457,  28.100,  28.600,  20.132,   1.236,   1.473,   0.101,   0.971,   0.005,   0.009,   0.014,   0.985
2017-01-04 06:00:00, 453.554,  40.922,  80.274,  28.100,  28.500,  20.140,   0.924,   1.439,   0.093,   0.985,   0.004,   0.008,   0.014,   0.984
2017-01-04 07:00:00, 437.529,  41.180,  79.907,  28.200,  28.600,  20.177,   0.900,   1.457,   0.097,   0.977,   0.004,   0.005,   0.011,   0.990
2017-01-04 09:00:00, 439.577,  42.076,  81.587,  28.000,  28.500,  20.182,   0.928,   1.468,   0.100,   0.990,   0.006,   0.010,   0.018,   0.976
2017-01-04 10:00:00, 427.810,  41.240,  80.542,  28.100,  28.500,  20.143,   1.100,   1.503,   0.108,   0.974,   0.006,   0.009,   0.016,   0.983
2017-01-04 11:00:00, 307.963,  41.462,  80.757,  28.000,  28.400,  20.055,   0.908,   1.526,   0.113,   0.971,   0.005,   0.009,   0.017,   0.984
2017-01-04 12:00:00, 140.166,  41.770,  81.410,  27.900,  28.300,  20.013,   0.752,   1.538,   0.116,   0.983,   0.007,   0.012,   0.021,   0.976
2017-01-04 14:00:00, 263.623,  42.155,  81.318,  27.800,  28.200,  19.926,   0.888,   1.561,   0.121,   0.981,   0.008,   0.013,   0.024,   0.971
2017-01-04 15:00:00, 355.560,  41.977,  81.142,  27.800,  28.300,  19.916,   1.100,   1.563,   0.122,   0.977,   0.004,   0.008,   0.016,   0.988
2017-01-04 16:00:00, 388.143,  41.015,  81.496,  27.900,  28.300,  19.963,   0.924,   1.565,   0.122,   0.976,   0.007,   0.011,   0.021,   0.979
2017-01-04 17:00:00, 393.306,  41.245,  80.797,  28.000,  28.500,  19.994,   0.000,   1.609,   0.132,   0.962,   0.006,   0.010,   0.021,   0.980
2017-01-04 19:00:00, 397.832,  41.624,  81.966,  27.900,  28.300,  19.995,   0.000,   1.556,   0.120,   0.985,   0.008,   0.014,   0.024,   0.971
2017-01-04 20:00:00, 420.807,  41.536,  80.825,  27.900,  28.300,  19.999,   0.056,   1.519,   0.112,   0.993,   0.005,   0.008,   0.019,   0.979
2017-01-04 21:00:00, 440.830,  41.157,  80.375,  28.100,  28.500,  20.043,   0.204,   1.552,   0.119,   0.979,   0.005,   0.008,   0.015,   0.987
2017-01-04 23:00:00, 345.201,  41.554,  81.125,  28.200,  28.500,  20.178,   0.388,   1.629,   0.137,   0.978,   0.007,   0.012,   0.020,   0.984
2017-01-05 00:00:00, 232.513,  41.539,  80.455,  28.200,  28.700,  20.217,   0.500,   1.669,   0.147,   0.975,   0.008,   0.013,   0.025,   0.977
2017-01-05 01:00:00, 204.554,  41.604,  81.271,  28.200,  28.600,  20.195,   0.604,   1.636,   0.139,   0.983,   0.008,   0.015,   0.027,   0.971
2017-01-05 02:00:00, 184.996,  41.471,  80.087,  28.200,  28.600,  20.175,   0.604,   1.641,   0.140,   0.981,   0.006,   0.011,   0.015,   0.990
2017-01-05 03:00:00, 195.340,  41.577,  81.227,  28.100,  28.500,  20.184,   0.772,   1.600,   0.130,   1.000,   0.008,   0.013,   0.027,   0.969
2017-01-05 04:00:00, 313.684,  41.021,  80.302,  28.100,  28.600,  20.133,   0.796,   1.603,   0.131,   0.979,   0.009,   0.014,   0.022,   0.976
2017-01-05 05:00:00, 381.147,  40.955,  79.700,  28.200,  28.600,  20.136,   0.800,   1.599,   0.130,   0.971,   0.006,   0.009,   0.018,   0.985
2017-01-05 07:00:00, 321.740,  41.552,  80.768,  28.200,  28.600,  20.168,   0.892,   1.602,   0.131,   0.982,   0.006,   0.011,   0.018,   0.985
2017-01-05 08:00:00, 278.818,  41.635,  81.470,  28.000,  28.500,  20.130,   0.900,   1.572,   0.124,   0.993,   0.007,   0.012,   0.025,   0.970
2017-01-05 09:00:00, 289.576,  41.543,  80.475,  28.200,  28.600,  20.145,   0.908,   1.617,   0.134,   0.979,   0.006,   0.010,   0.016,   0.987
2017-01-05 10:00:00, 273.603,  41.315,  81.209,  28.100,  28.600,  20.191,   1.100,   1.605,   0.132,   0.990,   0.007,   0.012,   0.021,   0.981
2017-01-05 11:00:00, 241.946,  41.724,  71.313,  28.000,  28.400,  18.328,   1.253,   1.762,   0.170,   0.957,   0.018,   0.019,   0.010,   0.988
2017-01-05 12:00:00, 212.326,  42.163,  80.663,  27.900,  28.500,  19.985,   1.172,   1.664,   0.146,   1.000,   0.006,   0.009,   0.018,   0.988
2017-01-05 13:00:00, 202.592,  41.096,  81.150,  27.900,  28.300,  19.992,   1.064,   1.629,   0.137,   1.011,   0.007,   0.012,   0.022,   0.981
2017-01-05 14:00:00, 207.125,  41.773,  81.235,  27.900,  28.200,  19.997,   1.068,   1.634,   0.138,   1.013,   0.007,   0.012,   0.023,   0.980
2017-01-05 15:00:00, 195.578,  42.548,  82.109,  27.500,  27.900,  19.704,   1.016,   1.632,   0.138,   1.009,   0.009,   0.014,   0.027,   0.973
2017-01-05 16:00:00, 212.077,  42.595,  81.179,  27.500,  28.000,  19.602,   1.092,   1.660,   0.145,   0.997,   0.007,   0.011,   0.019,   0.987
2017-01-05 18:00:00, 203.018,  42.093,  81.759,  27.300,  27.700,  19.535,   1.100,   1.624,   0.136,   1.012,   0.007,   0.013,   0.024,   0.979
2017-01-05 19:00:00, 223.406,  42.371,  81.810,  27.400,  27.800,  19.534,   1.144,   1.636,   0.139,   1.004,   0.008,   0.013,   0.027,   0.973
2017-01-05 20:00:00, 215.949,  42.118,  81.598,  27.400,  27.700,  19.545,   1.040,   1.602,   0.131,   1.015,   0.007,   0.012,   0.023,   0.979
2017-01-05 21:00:00, 209.726,  49.710,  81.269,  27.500,  28.000,  20.488,   0.926,   1.649,   0.142,   0.998,   0.011,   0.026,   0.037,   0.941
2017-01-05 22:00:00, 207.126,  42.432,  81.602,  27.300,  27.800,  19.609,   1.016,   1.628,   0.137,   1.012,   0.008,   0.013,   0.025,   0.977
2017-01-05 23:00:00, 179.463,  42.317,  80.310,  27.500,  27.900,  19.663,   0.716,   1.654,   0.143,   1.004,   0.007,   0.011,   0.019,   0.986
2017-01-06 00:00:00, 178.947,  42.781,  81.510,  27.400,  27.800,  19.628,   0.832,   1.623,   0.136,   1.013,   0.007,   0.012,   0.024,   0.979
2017-01-06 01:00:00, 174.711,  42.793,  82.340,  27.400,  27.800,  19.598,   0.840,   1.621,   0.135,   1.013,   0.009,   0.016,   0.027,   0.974
2017-01-06 02:00:00, 173.129,  41.939,  81.845,  27.400,  27.800,  19.560,   0.880,   1.641,   0.140,   1.004,   0.008,   0.013,   0.021,   0.983
2017-01-06 03:00:00, 168.948,  42.357,  82.005,  27.300,  27.700,  19.519,   0.836,   1.606,   0.132,   1.016,   0.009,   0.016,   0.028,   0.970
2017-01-06 04:00:00, 172.903,  42.272,  81.237,  27.400,  27.900,  19.543,   0.848,   1.677,   0.149,   0.989,   0.007,   0.011,   0.023,   0.983
2017-01-06 05:00:00, 172.000,  42.520,  82.430,  27.300,  27.700,  19.587,   0.816,   1.636,   0.139,   1.002,   0.006,   0.011,   0.023,   0.982
2017-01-06 06:00:00, 168.286,  42.721,  80.899,  27.300,  27.700,  19.547,   0.800,   1.621,   0.135,   1.010,   0.006,   0.011,   0.025,   0.976
2017-01-06 07:00:00, 162.588,  42.481,  81.444,  27.400,  27.900,  19.577,   0.720,   1.666,   0.146,   0.990,   0.007,   0.012,   0.020,   0.986
2017-01-06 08:00:00, 173.678,  42.507,  80.763,  27.300,  27.700,  19.531,   0.796,   1.626,   0.137,   1.006,   0.005,   0.009,   0.023,   0.981
2017-01-06 09:00:00, 183.505,  42.361,  81.768,  27.300,  27.800,  19.488,   0.800,   1.639,   0.140,   1.004,   0.005,   0.010,   0.020,   0.985
2017-01-06 10:00:00, 199.638,  42.231,  81.044,  27.300,  27.700,  19.440,   0.900,   1.619,   0.135,   1.004,   0.005,   0.009,   0.018,   0.988
2017-01-06 11:00:00, 202.173,  49.942,  80.598,  27.800,  28.200,  21.048,   0.969,   1.618,   0.135,   1.077,   0.008,   0.015,   0.022,   0.974
2017-01-06 12:00:00, 215.806,  42.426,  81.278,  27.800,  28.100,  19.937,   1.100,   1.640,   0.140,   1.037,   0.005,   0.010,   0.020,   0.986
2017-01-06 13:00:00, 217.860,  42.963,  82.001,  27.400,  27.600,  19.519,   1.252,   1.664,   0.146,   1.033,   0.008,   0.013,   0.024,   0.981
2017-01-06 14:00:00, 227.211,  42.663,  81.144,  27.200,  27.600,  19.385,   1.280,   1.662,   0.145,   1.034,   0.006,   0.011,   0.021,   0.985
2017-01-06 15:00:00, 249.210,  54.771,  80.960,  27.400,  27.500,  21.158,   1.300,   1.559,   0.121,   1.058,   0.005,   0.011,   0.013,   0.990
2017-01-06 16:00:00, 249.370,  42.799,  80.085,  27.200,  27.700,  19.314,   1.244,   1.660,   0.145,   0.999,   0.006,   0.011,   0.021,   0.983
2017-01-06 17:00:00, 211.954,  42.804,  80.877,  27.300,  27.900,  19.556,   1.128,   1.675,   0.148,   1.009,   0.006,   0.010,   0.019,   0.988
2017-01-06 18:00:00, 221.302,  42.870,  80.629,  27.500,  27.900,  19.656,   1.112,   1.675,   0.148,   0.998,   0.007,   0.011,   0.020,   0.986
2017-01-06 19:00:00, 216.832,  42.741,  81.748,  27.400,  28.100,  19.714,   1.300,   1.662,   0.145,   1.003,   0.007,   0.012,   0.023,   0.982
2017-01-06 20:00:00, 216.269,  42.487,  81.950,  27.500,  28.100,  19.798,   1.304,   1.648,   0.142,   1.007,   0.007,   0.013,   0.024,   0.980
2017-01-06 21:00:00, 230.284,  42.555,  82.292,  27.600,  28.000,  19.833,   1.232,   1.584,   0.127,   1.016,   0.007,   0.012,   0.023,   0.978
2017-01-06 22:00:00, 239.134,  42.377,  81.193,  27.600,  27.800,  19.683,   1.208,   1.588,   0.128,   1.002,   0.004,   0.007,   0.016,   0.989
2017-01-06 23:00:00, 256.164,  42.890,  82.329,  27.700,  28.000,  19.921,   1.108,   1.569,   0.123,   0.996,   0.007,   0.012,   0.023,   0.977
2017-01-07 00:00:00, 182.513,  50.056,  81.667,  27.600,  27.900,  20.940,   1.169,   1.845,   0.191,   1.162,   0.009,   0.018,   0.023,   0.987
2017-01-07 01:00:00, 230.820,  42.730,  81.303,  27.500,  27.800,  19.754,   1.004,   1.606,   0.132,   0.998,   0.004,   0.009,   0.015,   0.991
2017-01-07 02:00:00, 228.797,  42.760,  76.668,  27.500,  28.000,  19.107,   1.083,   1.696,   0.153,   0.987,   0.015,   0.023,   0.081,   0.722
2017-01-07 03:00:00, 218.752,  43.142,  81.486,  27.500,  28.100,  19.791,   1.000,   1.624,   0.136,   1.001,   0.007,   0.011,   0.020,   0.984
2017-01-07 04:00:00, 223.024,  42.187,  81.999,  27.600,  27.700,  19.689,   1.060,   1.580,   0.126,   1.013,   0.006,   0.012,   0.021,   0.983
2017-01-07 05:00:00, 217.474,  42.808,  82.264,  27.600,  27.800,  19.767,   0.988,   1.602,   0.131,   0.999,   0.006,   0.010,   0.016,   0.990
2017-01-07 07:00:00, 199.868,  42.694,  82.420,  27.600,  28.000,  19.805,   0.940,   1.611,   0.133,   1.012,   0.007,   0.012,   0.023,   0.980
2017-01-07 08:00:00, 200.427,  42.850,  82.208,  27.600,  27.800,  19.385,   1.326,   1.629,   0.137,   1.002,   0.007,   0.009,   0.047,   0.943
2017-01-07 09:00:00, 190.135,  42.941,  80.856,  27.500,  27.800,  19.641,   1.100,   1.648,   0.142,   0.995,   0.005,   0.009,   0.016,   0.991
2017-01-07 10:00:00, 169.382,  42.344,  81.524,  27.400,  28.000,  19.689,   1.088,   1.612,   0.133,   1.009,   0.007,   0.012,   0.022,   0.982
2017-01-07 11:00:00, 178.673,  42.286,  82.245,  27.600,  27.800,  19.766,   1.076,   1.595,   0.129,   1.015,   0.006,   0.011,   0.021,   0.984
2017-01-07 12:00:00, 158.857,  42.420,  82.139,  27.500,  27.800,  19.665,   1.300,   1.630,   0.138,   1.005,   0.006,   0.010,   0.016,   0.991
2017-01-07 13:00:00, 148.669,  42.896,  80.231,  27.400,  28.000,  19.674,   1.588,   1.669,   0.147,   0.994,   0.005,   0.009,   0.014,   0.993
2017-01-07 14:00:00, 126.281,  42.705,  82.148,  27.500,  28.000,  19.740,   1.832,   1.618,   0.135,   1.017,   0.008,   0.013,   0.022,   0.981
2017-01-07 15:00:00, 100.513,  42.907,  82.500,  27.600,  27.900,  19.806,   1.904,   1.642,   0.140,   1.010,   0.008,   0.016,   0.028,   0.976
2017-01-07 16:00:00, 101.260,  42.247,  80.919,  27.700,  27.800,  19.721,   1.952,   1.652,   0.143,   1.001,   0.008,   0.015,   0.027,   0.975
2017-01-07 17:00:00, 113.672,  42.946,  80.528,  27.300,  27.900,  19.512,   2.140,   1.695,   0.153,   0.993,   0.006,   0.011,   0.023,   0.983
2017-01-07 18:00:00, 117.903,  43.232,  81.890,  27.400,  28.000,  19.710,   2.152,   1.678,   0.149,   0.999,   0.008,   0.015,   0.027,   0.977
2017-01-07 19:00:00, 114.092,  43.204,  80.761,  27.400,  27.900,  19.658,   2.168,   1.672,   0.148,   0.996,   0.007,   0.012,   0.025,   0.979
2017-01-07 20:00:00, 95.972, 43.320, 81.523, 27.400, 28.000, 19.675,  1.984,  1.609,  0.133,  1.010,  0.007,  0.015,  0.027,  0.972
2017-01-07 21:00:00, 95.439, 42.970, 80.719, 27.400, 28.000, 19.693,  1.548,  1.608,  0.132,  0.993,  0.005,  0.007,  0.018,  0.986
2017-01-07 22:00:00, 142.088,  42.803,  80.573,  27.600,  28.100,  19.791,   1.896,   1.681,   0.150,   0.992,   0.008,   0.014,   0.025,   0.979
2017-01-07 23:00:00, 161.833,  42.540,  81.729,  27.600,  28.100,  19.802,   1.972,   1.667,   0.146,   1.013,   0.008,   0.014,   0.025,   0.980
2017-01-08 00:00:00, 90.094, 43.077, 82.148, 27.900, 28.100, 20.019,  1.248,  1.654,  0.143,  1.013,  0.007,  0.014,  0.027,  0.976
2017-01-08 01:00:00, 53.760, 42.953, 82.298, 27.700, 28.000, 19.893,  0.772,  1.602,  0.131,  1.015,  0.007,  0.015,  0.030,  0.968
2017-01-08 02:00:00, 25.456, 42.837, 82.027, 27.700, 28.100, 19.938,  0.384,  1.721,  0.159,  0.951,  0.011,  0.019,  0.032,  0.973
2017-01-08 03:00:00, 23.450, 42.933, 81.981, 27.900, 28.300, 20.066,  0.136,  1.740,  0.164,  0.936,  0.008,  0.014,  0.032,  0.975
2017-01-08 04:00:00, 19.282, 43.062, 81.931, 27.900, 28.300, 20.093,  0.028,  1.722,  0.160,  0.940,  0.013,  0.023,  0.049,  0.937